"Pseudo-MPEC" for jdq0067

Created 2026 Apr 12 7:35:10 UT using Find_Orb

Click here for an explanation of pseudo-MPECs

 
 Astrometry: 
     jdq0067*KC2026 04 08.94171312 08 50.856-02 54 34.38   ~48N5 20.3 GXNEOCPB67
     jdq0067 KC2026 04 08.94423612 08 51.163-02 54 31.28   ~48N5 20.4 GXNEOCPB67
     jdq0067 KC2026 04 08.94675912 08 51.446-02 54 28.62   ~48N5 20.4 GXNEOCPB67

Station data:
(B67) Sternwarte Mirasteilas, Falera  (N46.804167 E9.224190)  Switzerland.

Orbital elements:  jdq0067
   Perihelion 2026 Feb 15.211073 +/- 40 TT =  5:03:56.7 (JD 2461086.711073)
Epoch 2026 Apr  9.0 TT = JDT 2461139.5   Earth MOID: 0.0152   Ju: 0.2758
M   4.591356432 +/- 22              Ve: 0.0141   Ma: 0.0100   Sa: 0.8016
n   0.086975749 +/- 0.188           Peri.  257.895091 +/- 60     AutoNEOCP
a   5.045109505 +/- 7.27            Node   199.816604 +/- 39
e   0.89378221 +/- 0.25             Incl.    4.499858 +/- 3.5
P  11.33198                H 23.28  G  0.15   U 11.6  SR
q 0.535880336 +/- 0.311    Q 9.554338674 +/- 50.3         (J2000 ecliptic)
From 3 observations 2026 Apr. 8 (7.3 min); mean residual 0".09
Residuals in arcseconds: 
260408 B67  .06-  .07-    260408 B67  .12+  .15+    260408 B67  .06-  .07-    

Ephemerides (geocentric):
Date (UTC) HH   RA             Dec           delta  r     elong  mag " sig PA
---- --------  ------------   ------------  ------ ------ -----  --- --------
2026 04 12 08  12 14 43.506   -02 05 17.78  .23094 1.2242 162.1 21.4  30d  91
2026 04 12 09  12 14 46.962   -02 04 51.10  .23160 1.2249 162.1 21.4  30d  91
2026 04 12 10  12 14 50.401   -02 04 24.59  .23227 1.2255 162.1 21.4  30d  91
2026 04 12 11  12 14 53.825   -02 03 58.26  .23293 1.2261 162.0 21.4  30d  91
2026 04 12 12  12 14 57.233   -02 03 32.10  .23360 1.2267 162.0 21.4  30d  92
2026 04 12 13  12 15 00.626   -02 03 06.11  .23426 1.2274 162.0 21.4  31d  92
2026 04 12 14  12 15 04.003   -02 02 40.29  .23493 1.2280 162.0 21.4  31d  92
2026 04 12 15  12 15 07.365   -02 02 14.64  .23559 1.2286 161.9 21.4  31d  92
2026 04 12 16  12 15 10.712   -02 01 49.16  .23626 1.2292 161.9 21.4  32d  92
2026 04 12 17  12 15 14.043   -02 01 23.84  .23692 1.2298 161.9 21.4  32d  92
2026 04 12 18  12 15 17.360   -02 00 58.69  .23759 1.2305 161.8 21.4  32d  92
2026 04 12 19  12 15 20.662   -02 00 33.70  .23825 1.2311 161.8 21.4  33d  92
2026 04 12 20  12 15 23.950   -02 00 08.87  .23892 1.2317 161.8 21.4  33d  92
2026 04 12 21  12 15 27.222   -01 59 44.21  .23959 1.2323 161.7 21.5  33d  92
2026 04 12 22  12 15 30.481   -01 59 19.70  .24025 1.2330 161.7 21.5  33d  92
2026 04 12 23  12 15 33.725   -01 58 55.36  .24092 1.2336 161.7 21.5  33d  92
2026 04 13 00  12 15 36.955   -01 58 31.17  .24159 1.2342 161.6 21.5  34d  92
2026 04 13 01  12 15 40.172   -01 58 07.14  .24225 1.2348 161.6 21.5  34d  92
2026 04 13 02  12 15 43.374   -01 57 43.26  .24292 1.2355 161.6 21.5  34d  92
2026 04 13 03  12 15 46.563   -01 57 19.54  .24359 1.2361 161.6 21.5  34d  92
2026 04 13 04  12 15 49.738   -01 56 55.97  .24426 1.2367 161.5 21.5  34d  92
2026 04 13 05  12 15 52.899   -01 56 32.55  .24492 1.2373 161.5 21.5  34d  92
2026 04 13 06  12 15 56.047   -01 56 09.29  .24559 1.2379 161.5 21.5  34d  92
2026 04 13 07  12 15 59.182   -01 55 46.17  .24626 1.2386 161.4 21.5  34d  92
2026 04 13 08  12 16 02.304   -01 55 23.20  .24693 1.2392 161.4 21.5  34d  92
2026 04 13 09  12 16 05.412   -01 55 00.38  .24760 1.2398 161.4 21.5  34d  92
2026 04 13 10  12 16 08.508   -01 54 37.71  .24826 1.2404 161.3 21.6  34d  92
2026 04 13 11  12 16 11.591   -01 54 15.18  .24893 1.2411 161.3 21.6  34d  92
2026 04 13 12  12 16 14.661   -01 53 52.80  .24960 1.2417 161.3 21.6  34d  92
2026 04 13 13  12 16 17.719   -01 53 30.56  .25027 1.2423 161.2 21.6  34d  92
2026 04 13 14  12 16 20.764   -01 53 08.47  .25094 1.2429 161.2 21.6  34d  92
2026 04 13 15  12 16 23.797   -01 52 46.51  .25161 1.2435 161.2 21.6  34d  92
2026 04 13 16  12 16 26.817   -01 52 24.70  .25228 1.2442 161.1 21.6  34d  92
2026 04 13 17  12 16 29.826   -01 52 03.03  .25295 1.2448 161.1 21.6  34d  92
2026 04 13 18  12 16 32.822   -01 51 41.50  .25362 1.2454 161.1 21.6  34d  92
2026 04 13 19  12 16 35.806   -01 51 20.10  .25429 1.2460 161.1 21.6  34d  92
2026 04 13 20  12 16 38.779   -01 50 58.84  .25496 1.2467 161.0 21.6  34d  92
2026 04 13 21  12 16 41.740   -01 50 37.72  .25563 1.2473 161.0 21.6  34d  92
2026 04 13 22  12 16 44.689   -01 50 16.73  .25630 1.2479 161.0 21.6  34d  92
2026 04 13 23  12 16 47.627   -01 49 55.88  .25697 1.2485 160.9 21.7  34d  92
2026 04 14 00  12 16 50.553   -01 49 35.16  .25764 1.2491 160.9 21.7  34d  92
2026 04 14 01  12 16 53.468   -01 49 14.57  .25831 1.2498 160.9 21.7  34d  92
2026 04 14 02  12 16 56.371   -01 48 54.11  .25899 1.2504 160.8 21.7  35d  92
2026 04 14 03  12 16 59.264   -01 48 33.79  .25966 1.2510 160.8 21.7  35d  92
2026 04 14 04  12 17 02.145   -01 48 13.59  .26033 1.2516 160.8 21.7  35d  92
2026 04 14 05  12 17 05.016   -01 47 53.53  .26100 1.2523 160.7 21.7  35d  92
2026 04 14 06  12 17 07.875   -01 47 33.59  .26167 1.2529 160.7 21.7  35d  92
2026 04 14 07  12 17 10.724   -01 47 13.78  .26235 1.2535 160.7 21.7  35d  92